KAVALA/CHRISOUPOLIS current weather conditions

sailwx.info

Wind from 080 at 2 knots

Air temperature -3.0° C
Visibility: greater than 5.4 NM
Dewpoint -6.0° C

Last reported at 2020-Jan-21 04:50 UTC.
Time now 2020-Jan-21 06:08 UTC

Location: N 40°55' E 024°37'.
View on Google Maps.

See reports from other nearby stations

  
Tides and Currents Weather Stations Pressure Air Temp Water Temp Dewpoint Dewpoint Depression Visibility Wind Speed Wind Dir Waves Ship Positions
date/time (UTC)wind fromknots sea level pressurealtimeterstation pressurevisibilityair tempwater tempwave heightnotes
2020-Jan-21 04:50 080 2 5.4-3.0
2020-Jan-21 04:20 070 2 5.4-3.0
2020-Jan-21 03:50 060 4 5.4-3.0
2020-Jan-21 03:20 060 4 5.4-3.0
2020-Jan-21 02:50 020 2 5.4-3.0
2020-Jan-21 01:50 030 4 5.4-3.0
2020-Jan-21 00:50 040 4 5.4-2.0
2020-Jan-20 23:50 010 4 5.4-2.0
2020-Jan-20 22:50 030 2 5.4-2.0
2020-Jan-20 21:50 020 2 5.4-1.0
2020-Jan-20 20:50 080 1 5.4-1.0
2020-Jan-20 20:20 030 4 5.4 2.0
2020-Jan-20 19:50 030 4 5.4 2.0
2020-Jan-20 19:20 070 5 5.4 1.0
2020-Jan-20 18:50 060 2 5.4 2.0
2020-Jan-20 18:20 070 2 5.4 2.0
2020-Jan-20 17:50 050 4 5.4 2.0
2020-Jan-20 17:20 030 2 5.4 3.0
2020-Jan-20 16:50 030 4 5.4 3.0
2020-Jan-20 16:20 010 4 5.4 4.0
2020-Jan-20 15:50 080 5 5.4 5.0
2020-Jan-20 15:20 080 5 5.4 6.0
2020-Jan-20 14:50 080 6 5.4 7.0
2020-Jan-20 14:20 090 8 5.4 8.0
2020-Jan-20 13:50 080 7 5.4 8.0
2020-Jan-20 13:20 080 8 5.4 8.0
2020-Jan-20 12:50 080 11 5.4 8.0
2020-Jan-20 12:20 070 9 5.4 8.0
2020-Jan-20 11:50 070 9 5.4 8.0
2020-Jan-20 11:20 070 8 5.4 9.0
2020-Jan-20 10:50 060 8 5.4 9.0
2020-Jan-20 10:20 050 11 5.4 9.0
2020-Jan-20 09:50 050 12 5.4 8.0
2020-Jan-20 09:20 030 9 5.4 6.0
2020-Jan-20 08:50 040 7 5.4 6.0
2020-Jan-20 08:20 040 6 5.4 5.0
2020-Jan-20 07:50 050 6 5.4 5.0
2020-Jan-20 07:20 050 6 5.4 4.0
2020-Jan-20 06:50 050 5 5.4 4.0
2020-Jan-20 06:20 040 5 5.4 4.0
2020-Jan-20 05:50 040 6 5.4 4.0
2020-Jan-20 05:20 040 5 5.4 4.0
2020-Jan-20 04:50 050 6 5.4 4.0
2020-Jan-20 04:20 040 6 5.4 3.0
2020-Jan-20 03:50 040 6 5.4 3.0
2020-Jan-20 02:50 010 5 5.4 4.0
2020-Jan-20 01:50 040 6 5.4 4.0
2020-Jan-20 00:50 050 6 5.4 5.0
2020-Jan-19 23:50 050 5 5.4 5.0
2020-Jan-19 22:50 020 9 5.4 5.0
2020-Jan-19 21:50 040 7 5.4 5.0
2020-Jan-19 20:50 040 8 5.4 5.0
2020-Jan-19 20:20 030 5 5.4 5.0
2020-Jan-19 19:50 030 5 5.4 5.0
2020-Jan-19 19:20 030 6 5.4 5.0
2020-Jan-19 18:50 030 6 5.4 5.0
2020-Jan-19 18:20 060 7 5.4 5.0
2020-Jan-19 17:50 060 7 5.4 5.0
2020-Jan-19 17:20 040 6 5.4 5.0
2020-Jan-19 16:50 040 6 5.4 5.0
2020-Jan-19 16:20 040 5 5.4 6.0
2020-Jan-19 15:50 040 5 5.4 6.0
2020-Jan-19 15:20 050 6 5.4 6.0
2020-Jan-19 14:50 050 7 5.4 7.0
2020-Jan-19 14:20 060 8 5.4 7.0
2020-Jan-19 13:50 070 11 5.4 7.0
2020-Jan-19 13:20 080 12 5.4 8.0
2020-Jan-19 12:50 070 13 5.4 8.0
2020-Jan-19 12:20 080 13 5.4 8.0
2020-Jan-19 11:50 070 14 5.4 8.0
2020-Jan-19 11:20 060 15 5.4 8.0
2020-Jan-19 10:50 070 13 5.4 8.0
2020-Jan-19 10:20 070 13 5.4 8.0
2020-Jan-19 09:50 070 13 5.4 8.0
2020-Jan-19 09:20 070 13 5.4 7.0
2020-Jan-19 08:50 060 9 5.4 6.0
2020-Jan-19 08:20 070 8 5.4 6.0
2020-Jan-19 07:50 070 7 5.4 5.0
2020-Jan-19 07:20 070 7 5.4 5.0
2020-Jan-19 06:50 070 5 5.4 5.0
2020-Jan-19 06:20 080 4 5.4 5.0